Location: Sungai Jaoh
(2.9167°N, 113.9167°E)
Time: 14:25:30
(UTC+00:00)

Meteor 1-4 Rocket - Pass Details

Date: 30 November 2020
Orbit: 449 x 500 km, 81.2° (Epoch: 25 January)

Event Time Altitude Azimuth Distance (km) Brightness Sun altitude
Rises 21:38:39 0° 352° (N) 2,446 5.8 -9.1°
Reaches altitude 10° 21:40:42 10° 351° (N) 1,582 4.9 -8.7°
Maximum altitude 21:44:08 75° 265° (W) 476 2.4 -7.9°
Drops below altitude 10° 21:47:39 10° 179° (S) 1,612 5.5 -7.0°
Sets 21:49:45 0° 177° (S) 2,498 6.5 -6.6°
